EN

Hourly Weather Bolshie Turki

Today, 26 October, Monday

Time Temperature Precipitation Wind Pressure Humidity
00:00 +5°C° 0 mm 3 mps 748 mmHg 93%
01:00 +5°C° 0 mm 3 mps 748 mmHg 94%
02:00 +5°C° 0 mm 3 mps 749 mmHg 94%
03:00 +4°C° 0 mm 3 mps 750 mmHg 95%
04:00 +4°C° 0 mm 3 mps 750 mmHg 95%
05:00 +3°C° 0 mm 3 mps 750 mmHg 95%
06:00 +3°C° 0 mm 3 mps 750 mmHg 95%
07:00 +4°C° 0 mm 3 mps 750 mmHg 88%
08:00 +5°C° 0 mm 3 mps 751 mmHg 81%
09:00 +7°C° 0 mm 3 mps 751 mmHg 74%
10:00 +8°C° 0 mm 3 mps 751 mmHg 66%
11:00 +10°C° 0 mm 2 mps 751 mmHg 58%
12:00 +12°C° 0 mm 2 mps 751 mmHg 50%
13:00 +11°C° 0 mm 3 mps 751 mmHg 50%
14:00 +12°C° 0 mm 3 mps 751 mmHg 50%
15:00 +12°C° 0 mm 3 mps 751 mmHg 50%
16:00 +11°C° 0 mm 3 mps 751 mmHg 56%
17:00 +9°C° 0 mm 2 mps 751 mmHg 63%
18:00 +8°C° 0 mm 2 mps 752 mmHg 69%
19:00 +7°C° 0 mm 2 mps 752 mmHg 72%
20:00 +7°C° 0 mm 2 mps 752 mmHg 75%
21:00 +6°C° 0 mm 2 mps 753 mmHg 78%
22:00 +6°C° 0 mm 2 mps 753 mmHg 82%
23:00 +5°C° 0 mm 2 mps 753 mmHg 87%

Tomorrow, 27 October, Tuesday

Time Temperature Precipitation Wind Pressure Humidity
00:00 +5°C° 0 mm 2 mps 753 mmHg 91%
01:00 +4°C° 0 mm 2 mps 754 mmHg 91%
02:00 +4°C° 0 mm 2 mps 754 mmHg 91%
03:00 +3°C° 0 mm 2 mps 754 mmHg 91%
04:00 +3°C° 0 mm 2 mps 755 mmHg 91%
05:00 +2°C° 0 mm 2 mps 755 mmHg 91%
06:00 +2°C° 0 mm 2 mps 756 mmHg 91%
07:00 +2°C° 0 mm 2 mps 756 mmHg 86%
08:00 +2°C° 0 mm 3 mps 756 mmHg 80%
09:00 +3°C° 0 mm 3 mps 756 mmHg 75%
10:00 +4°C° 0 mm 3 mps 757 mmHg 66%
11:00 +5°C° 0 mm 3 mps 757 mmHg 58%
12:00 +7°C° 0 mm 2 mps 757 mmHg 50%
13:00 +8°C° 0 mm 2 mps 757 mmHg 47%
14:00 +8°C° 0 mm 2 mps 757 mmHg 45%
15:00 +8°C° 0 mm 2 mps 757 mmHg 42%
16:00 +7°C° 0 mm 2 mps 757 mmHg 47%
17:00 +4°C° 0 mm 3 mps 757 mmHg 52%
18:00 +3°C° 0 mm 3 mps 758 mmHg 57%
19:00 +2°C° 0 mm 3 mps 758 mmHg 58%
20:00 +2°C° 0 mm 3 mps 758 mmHg 60%
21:00 +1°C° 0 mm 3 mps 758 mmHg 61%
22:00 +2°C° 0 mm 2 mps 758 mmHg 62%
23:00 +1°C° 0 mm 2 mps 759 mmHg 63%

Day after tomorrow, 28 October, Wednesday

Time Temperature Precipitation Wind Pressure Humidity
00:00 +1°C° 0 mm 2 mps 759 mmHg 64%
01:00 -1°C° 0 mm 2 mps 759 mmHg 65%
02:00 -1°C° 0 mm 2 mps 759 mmHg 66%
03:00 -1°C° 0 mm 2 mps 759 mmHg 67%
04:00 -1°C° 0 mm 2 mps 759 mmHg 67%
05:00 -2°C° 0 mm 2 mps 759 mmHg 67%
06:00 -2°C° 0 mm 2 mps 759 mmHg 67%
07:00 -1°C° 0 mm 2 mps 759 mmHg 62%
08:00 0°C° 0 mm 3 mps 760 mmHg 57%
09:00 +1°C° 0 mm 3 mps 760 mmHg 52%
10:00 +3°C° 0 mm 3 mps 760 mmHg 45%
11:00 +5°C° 0 mm 3 mps 760 mmHg 37%
12:00 +7°C° 0 mm 4 mps 760 mmHg 30%
13:00 +7°C° 0 mm 4 mps 760 mmHg 30%
14:00 +7°C° 0 mm 4 mps 760 mmHg 30%
15:00 +7°C° 0 mm 4 mps 759 mmHg 29%
16:00 +6°C° 0 mm 4 mps 759 mmHg 35%
17:00 +4°C° 0 mm 4 mps 759 mmHg 42%
18:00 +2°C° 0 mm 3 mps 759 mmHg 48%
19:00 +2°C° 0 mm 3 mps 759 mmHg 50%
20:00 +1°C° 0 mm 3 mps 759 mmHg 52%
21:00 +1°C° 0 mm 3 mps 759 mmHg 54%
22:00 0°C° 0 mm 3 mps 759 mmHg 56%
23:00 0°C° 0 mm 3 mps 759 mmHg 59%

29 October, Thursday

Time Temperature Precipitation Wind Pressure Humidity
00:00 0°C° 0 mm 3 mps 759 mmHg 61%
01:00 0°C° 0 mm 3 mps 759 mmHg 64%
02:00 -1°C° 0 mm 3 mps 759 mmHg 66%
03:00 -1°C° 0 mm 3 mps 759 mmHg 68%
04:00 -1°C° 0 mm 3 mps 759 mmHg 69%
05:00 -2°C° 0 mm 4 mps 759 mmHg 69%
06:00 -2°C° 0 mm 4 mps 759 mmHg 70%
07:00 -1°C° 0 mm 4 mps 759 mmHg 65%
08:00 0°C° 0 mm 5 mps 759 mmHg 59%
09:00 +2°C° 0 mm 5 mps 759 mmHg 53%
10:00 +3°C° 0 mm 6 mps 759 mmHg 47%
11:00 +5°C° 0 mm 6 mps 759 mmHg 41%
12:00 +8°C° 0 mm 6 mps 759 mmHg 34%
13:00 +8°C° 0 mm 6 mps 758 mmHg 34%
14:00 +8°C° 0 mm 6 mps 758 mmHg 33%
15:00 +8°C° 0 mm 6 mps 757 mmHg 32%
16:00 +7°C° 0 mm 6 mps 757 mmHg 37%
17:00 +5°C° 0 mm 5 mps 757 mmHg 42%
18:00 +3°C° 0 mm 5 mps 757 mmHg 46%
19:00 +3°C° 0 mm 5 mps 757 mmHg 47%
20:00 +3°C° 0 mm 5 mps 757 mmHg 47%
21:00 +3°C° 0 mm 5 mps 757 mmHg 48%
22:00 +2°C° 0 mm 5 mps 756 mmHg 49%
23:00 +2°C° 0 mm 5 mps 756 mmHg 50%

30 October, Friday

Time Temperature Precipitation Wind Pressure Humidity
00:00 +2°C° 0 mm 5 mps 756 mmHg 52%
01:00 +3°C° 0 mm 4 mps 756 mmHg 55%
02:00 +3°C° 0 mm 4 mps 756 mmHg 58%
03:00 +1°C° 0 mm 4 mps 756 mmHg 61%
04:00 +1°C° 0 mm 4 mps 755 mmHg 63%
05:00 +1°C° 0 mm 4 mps 755 mmHg 66%
06:00 +1°C° 0 mm 4 mps 755 mmHg 68%
07:00 +2°C° 0 mm 5 mps 755 mmHg 64%
08:00 +3°C° 0 mm 5 mps 755 mmHg 60%
09:00 +3°C° 0 mm 6 mps 755 mmHg 56%
10:00 +4°C° 0 mm 6 mps 755 mmHg 54%
11:00 +7°C° 0 mm 6 mps 754 mmHg 51%
12:00 +8°C° 0 mm 6 mps 754 mmHg 49%
13:00 +8°C° 0 mm 6 mps 754 mmHg 49%
14:00 +8°C° 0 mm 6 mps 754 mmHg 49%
15:00 +9°C° 0 mm 6 mps 753 mmHg 50%
16:00 +8°C° 0 mm 5 mps 753 mmHg 52%
17:00 +7°C° 0 mm 4 mps 753 mmHg 55%
18:00 +6°C° 0 mm 4 mps 753 mmHg 57%
19:00 +5°C° 0 mm 3 mps 753 mmHg 58%
20:00 +5°C° 0 mm 3 mps 753 mmHg 58%
21:00 +5°C° 0 mm 3 mps 753 mmHg 59%
22:00 +5°C° 0 mm 3 mps 753 mmHg 59%
23:00 +4°C° 0 mm 3 mps 753 mmHg 58%

31 October, Saturday

Time Temperature Precipitation Wind Pressure Humidity
00:00 +4°C° 0 mm 3 mps 752 mmHg 58%
01:00 +4°C° 0 mm 3 mps 752 mmHg 58%
02:00 +3°C° 0 mm 3 mps 752 mmHg 58%
03:00 +3°C° 0 mm 3 mps 752 mmHg 58%
04:00 +4°C° 0 mm 2 mps 752 mmHg 57%
05:00 +4°C° 0 mm 2 mps 752 mmHg 57%
06:00 +3°C° 0 mm 2 mps 752 mmHg 57%
07:00 +4°C° 0 mm 2 mps 752 mmHg 54%
08:00 +5°C° 0 mm 2 mps 752 mmHg 50%
09:00 +6°C° 0 mm 2 mps 752 mmHg 47%
Show more